Wind_Speed
42 44 45 47 48 50 52 52 50 48 46 44 42 40 38 37 35 34 32 31 30 28 26 25 25 24 24 23 23 23 24 24 24 24 24 24 24 25 25 25 25 25 24 24 24 23 22 22 22 22 21 20 20 19 19 18 17 16 16 16 16 15 14 13 12 12 11 10 10 9 8 7 6 5 4 3 3 4 4 5 6 7 8 9 9 10 9 9
42 44 46 47 49 51 53 52 51 49 47 45 43 41 39 37 36 34 33 31 29 28 26 25 25 24 24 23 23 23 23 23 24 24 24 24 24 24 24 24 24 23 23 23 22 22 22 22 22 21 21 20 20 19 19 18 18 17 17 17 17 15 14 13 13 13 12 11 10 10 9 9 7 7 6 4 3 4 4 5 6 7 7 8 9 9 10 9
42 44 46 47 49 52 53 53 51 50 48 46 44 42 40 38 37 35 33 31 29 27 26 25 25 25 24 24 23 23 23 23 23 23 23 24 24 24 24 23 23 23 23 22 22 22 22 22 22 21 21 20 20 19 19 18 18 18 18 18 17 15 14 14 14 14 12 12 11 10 10 10 9 8 7 5 4 4 5 5 6 7 7 8 8 9 9 10
43 44 46 48 49 52 54 53 52 50 49 47 45 43 41 39 37 35 33 31 29 28 26 26 25 25 24 24 23 23 23 23 23 23 23 23 23 23 23 23 23 22 22 22 22 22 22 22 22 21 21 20 20 19 19 18 18 19 19 18 17 16 15 15 15 14 13 12 12 11 11 11 11 10 8 6 6 5 5 6 6 7 7 8 8 9 9 9
43 44 46 48 50 52 53 53 51 50 49 47 45 43 41 39 37 35 33 31 29 28 27 26 25 25 24 24 24 23 23 23 23 23 23 23 23 23 23 23 22 22 22 22 22 22 21 21 21 21 20 20 20 19 19 18 18 19 19 18 17 16 15 16 15 15 14 13 12 12 12 13 12 11 9 7 7 6 6 6 7 8 8 8 9 9 9 10
44 45 47 49 51 53 53 52 51 50 49 47 46 44 42 40 38 36 34 32 30 28 27 26 25 25 24 24 24 24 24 24 23 23 24 23 23 23 23 22 22 22 22 22 22 21 21 21 21 20 20 20 19 19 19 19 19 19 19 18 18 17 16 16 16 15 15 13 13 13 13 14 13 11 9 8 8 7 7 7 7 8 9 9 9 10 10 10
46 47 48 50 52 53 53 52 51 49 49 48 46 44 42 41 39 37 35 33 31 29 27 26 26 25 25 25 25 24 24 23 23 23 24 24 23 23 22 22 22 21 21 21 21 21 21 21 20 20 20 20 19 19 19 19 19 19 19 19 18 18 17 17 17 16 15 14 14 14 14 14 14 11 9 8 9 8 7 8 8 9 10 10 10 11 11 11
47 48 49 50 52 53 53 52 50 49 48 47 46 45 43 41 40 38 36 34 31 29 28 27 26 26 26 26 26 25 24 24 24 24 23 23 23 23 22 22 22 21 21 21 21 21 21 21 20 20 20 20 19 19 20 20 20 19 19 19 19 18 18 18 17 17 16 15 14 14 14 14 13 11 8 8 9 8 8 8 9 10 11 11 12 12 12 12
47 49 50 52 53 54 53 52 51 50 49 48 46 45 44 42 41 39 37 35 32 30 29 28 27 27 27 27 26 26 25 24 24 24 24 23 23 23 23 23 22 22 21 21 21 21 21 21 21 20 20 20 20 20 20 20 20 19 19 19 19 19 19 18 18 17 16 15 15 14 13 13 13 10 8 8 9 8 8 9 9 10 11 12 12 13 13 13
47 49 51 53 54 54 54 52 51 50 49 48 47 46 44 43 42 40 38 36 33 31 30 29 28 27 27 27 27 27 26 25 25 24 24 23 23 23 23 23 23 23 22 22 22 22 21 21 21 21 21 21 21 21 21 20 20 20 20 20 20 20 19 19 18 17 16 15 14 13 13 13 12 10 7 8 8 8 9 9 9 10 11 12 13 13 14 14
48 50 52 54 55 55 54 53 52 51 50 49 48 47 46 45 43 41 39 37 35 33 31 29 28 28 28 28 28 27 26 26 25 24 24 24 23 24 24 24 24 24 23 23 22 22 22 22 22 22 22 21 21 21 21 21 21 21 21 21 20 20 20 19 18 17 16 14 14 13 12 12 12 10 7 8 8 8 8 9 9 10 11 12 13 14 15 15
48 50 52 54 54 54 54 53 52 51 50 49 48 48 47 45 44 42 40 38 36 34 33 31 30 29 29 29 29 28 27 26 26 25 25 24 24 24 25 25 25 25 24 24 24 23 23 23 23 23 22 22 22 22 22 21 21 21 21 21 21 21 20 19 18 17 16 14 14 13 11 11 13 10 7 8 8 8 8 9 10 11 12 12 14 14 15 16
49 50 52 53 54 54 54 53 52 51 50 49 49 48 47 46 45 43 41 40 38 36 35 33 32 30 30 30 30 29 28 27 26 26 25 25 25 26 26 27 27 26 26 25 25 25 25 24 24 24 23 23 23 23 22 22 22 22 22 22 22 22 21 20 19 17 16 15 15 14 11 12 14 11 8 8 8 8 9 10 11 12 13 14 14 15 16 17
50 51 52 53 54 54 54 54 53 52 51 50 50 49 48 47 46 44 43 41 40 38 37 35 34 33 32 31 30 30 30 28 27 27 26 26 26 27 28 28 28 28 27 27 26 26 26 26 25 25 25 24 24 24 24 24 24 23 24 23 23 22 21 20 19 18 17 16 16 15 12 13 15 12 10 10 9 10 10 11 12 14 15 15 16 16 17 18
52 52 53 54 54 55 55 55 54 53 53 52 51 50 49 48 47 45 44 43 41 40 39 37 36 35 34 33 31 31 31 30 29 28 27 27 27 28 29 29 29 29 29 28 28 27 27 27 26 26 25 25 25 25 24 25 25 25 25 24 23 23 21 20 20 19 18 18 18 17 13 13 16 14 13 12 11 11 12 13 14 15 16 17 17 18 18 19
53 53 53 54 55 55 55 56 56 55 54 53 52 52 50 49 48 47 45 44 43 42 40 39 38 37 36 34 33 32 32 31 31 30 29 29 28 29 30 30 31 31 30 30 29 29 28 28 27 27 26 26 26 26 26 26 26 26 26 25 23 23 22 21 22 21 20 20 19 18 15 14 17 17 15 14 13 14 14 15 16 17 18 18 19 19 20 20
53 54 54 55 55 55 55 55 55 55 55 54 53 53 52 50 49 48 47 46 45 43 42 41 39 38 38 36 35 34 33 33 32 31 31 31 30 30 30 31 32 32 32 31 31 30 29 29 28 28 28 27 27 27 27 28 28 27 27 25 24 24 24 23 23 23 22 21 20 20 17 15 18 19 18 17 16 16 15 16 18 19 19 19 20 20 20 21
54 55 55 55 56 56 56 56 55 55 55 54 54 53 53 52 51 50 48 47 46 45 44 43 41 40 40 38 37 36 35 34 34 33 33 32 32 31 32 32 33 33 33 33 32 32 31 30 30 29 29 28 27 27 29 30 30 28 27 25 25 25 26 25 25 24 24 23 22 22 19 17 19 21 20 19 18 17 16 17 18 19 20 20 20 20 21 21
53 54 55 56 56 57 57 57 57 56 55 55 54 54 53 52 52 51 50 49 48 47 47 45 44 43 41 39 38 37 36 36 36 35 35 34 34 33 33 33 34 34 35 35 34 34 33 32 31 30 29 28 28 30 32 32 30 28 27 27 26 27 27 27 27 27 26 25 24 23 22 20 21 22 21 22 21 18 16 17 18 19 20 21 21 21 21 21
51 53 55 56 56 57 57 57 57 57 57 56 55 54 54 53 53 52 51 50 50 49 48 46 45 44 43 41 40 39 38 38 38 37 37 36 36 35 34 34 35 36 36 36 36 35 34 34 32 31 30 30 30 33 34 31 30 29 29 29 29 28 29 29 29 29 29 28 26 26 26 22 22 23 23 23 22 17 16 17 18 19 21 22 22 22 22 21
50 52 54 55 56 57 57 57 57 57 57 57 56 56 55 54 53 53 52 51 51 50 49 48 47 46 45 43 43 42 41 40 39 39 38 38 37 37 36 36 36 37 37 37 37 37 36 36 34 33 32 31 33 34 33 32 32 31 31 31 30 30 31 30 31 32 31 31 29 28 29 25 23 24 24 24 23 18 17 18 18 20 22 22 23 23 23 22
48 50 51 53 55 57 57 57 57 57 57 57 57 56 56 55 55 54 53 53 52 52 51 50 49 49 47 46 45 44 43 42 41 40 40 39 39 39 38 37 37 38 38 38 39 39 39 38 37 35 34 33 35 35 34 34 33 33 33 32 32 32 32 32 34 34 34 34 31 31 32 28 24 25 24 24 24 20 19 20 21 22 22 23 24 25 24 23
49 48 49 50 52 55 57 58 58 58 58 58 57 57 57 56 56 56 55 55 55 54 53 52 51 51 49 49 47 46 45 44 43 42 41 40 40 40 39 39 40 39 39 40 41 41 40 40 38 37 36 36 37 37 36 35 35 35 34 34 34 34 34 35 36 36 36 37 34 33 35 32 27 26 25 24 25 23 21 23 24 24 25 25 26 26 25 25
51 50 49 48 49 51 54 56 58 58 58 58 58 58 58 57 57 57 57 57 57 56 55 54 54 52 52 51 49 48 47 46 45 44 43 42 42 42 41 42 42 41 40 41 42 42 42 42 40 39 39 39 39 39 38 37 36 36 36 36 37 36 36 38 38 38 38 38 37 35 37 37 31 29 27 25 26 25 24 25 26 26 27 28 28 27 27 27
54 53 52 50 49 48 49 52 54 56 58 58 58 58 58 58 58 57 57 58 58 57 57 56 55 54 53 52 51 50 49 48 47 46 45 45 44 44 43 43 43 43 43 42 43 43 43 42 41 41 41 40 41 41 40 39 39 38 38 38 39 39 39 39 40 40 39 39 39 37 40 41 36 30 28 26 27 28 28 27 27 28 29 31 31 29 28 30
53 55 55 53 51 48 47 48 50 53 55 56 57 57 58 57 57 58 57 58 60 60 58 57 56 56 55 54 53 52 51 50 49 48 48 47 46 45 45 45 44 45 45 44 44 44 44 43 42 42 42 42 42 43 42 41 41 41 41 40 41 41 41 42 42 42 41 42 40 38 42 44 40 33 28 27 28 29 29 29 28 29 32 33 32 30 30 31
49 52 54 55 54 53 50 48 47 48 50 53 55 55 56 56 56 57 56 58 62 61 59 59 57 56 55 55 54 53 53 51 49 50 49 48 47 47 47 46 46 46 46 46 47 45 44 43 43 43 43 43 44 44 44 44 44 44 43 42 43 44 44 44 44 44 44 44 43 41 42 45 44 37 30 29 31 31 30 29 29 31 34 35 34 33 33 33
46 47 51 54 55 55 54 52 49 48 48 49 51 52 53 54 55 55 53 56 63 61 58 59 59 57 56 55 55 55 54 52 50 51 49 49 49 48 48 48 47 48 48 48 48 47 46 45 45 45 45 46 46 46 46 46 47 47 46 45 45 46 46 46 46 46 46 46 45 43 43 46 45 40 35 32 32 33 31 29 30 32 35 36 36 35 34 35
42 41 44 50 55 56 55 54 52 52 51 49 48 49 51 51 52 52 51 57 64 63 59 58 59 59 58 57 56 55 55 54 53 51 50 50 50 50 50 49 48 49 49 49 50 50 49 48 48 47 47 47 47 47 47 48 49 49 48 48 47 48 48 48 48 47 48 48 46 45 45 47 44 39 39 37 34 34 31 30 32 34 35 37 37 36 36 38
42 40 38 41 47 51 54 55 54 53 54 53 52 50 50 51 51 51 54 59 63 63 60 59 59 59 58 58 58 57 57 56 54 53 52 52 51 51 50 50 50 50 51 51 51 51 50 50 50 50 49 48 47 47 47 48 49 49 49 49 49 49 49 50 50 49 50 50 47 47 48 48 45 38 37 39 37 35 32 31 33 34 35 37 37 37 38 40
46 44 41 38 38 40 44 50 55 55 54 55 55 55 54 53 52 54 57 57 58 60 60 59 59 59 58 57 57 57 57 57 55 54 53 53 53 52 51 51 51 51 52 51 51 51 51 51 51 50 50 49 48 48 48 48 49 50 51 51 50 51 50 51 51 50 52 51 49 50 50 50 48 38 35 40 40 39 37 34 35 36 37 37 38 39 40 41
50 49 48 45 43 42 39 41 46 52 55 55 55 57 57 58 58 59 57 53 54 59 60 57 56 57 57 57 56 55 55 56 55 54 53 53 53 53 52 51 50 50 51 51 51 51 51 51 51 50 51 51 50 50 50 50 50 50 50 50 49 49 49 51 52 52 54 53 52 53 53 54 49 39 40 46 44 43 43 41 41 40 40 40 40 39 41 43
55 53 52 50 49 49 47 44 42 44 47 51 56 57 58 61 63 61 58 56 57 61 59 55 54 55 55 56 56 55 55 55 55 54 54 54 54 54 53 53 52 52 51 51 51 51 51 51 51 51 51 51 51 51 51 50 49 48 48 47 47 48 50 52 54 54 55 55 54 55 56 56 50 42 44 48 47 47 48 48 47 44 43 44 42 41 44 46
58 57 56 53 51 50 51 50 49 45 43 45 52 57 61 63 58 53 56 59 60 62 59 55 53 53 54 55 55 54 54 54 54 54 54 55 56 56 55 55 54 53 52 53 53 52 52 52 51 51 51 50 49 48 48 48 47 48 47 49 50 51 52 54 55 56 56 57 56 56 58 56 51 47 47 49 49 50 50 50 50 48 47 48 47 46 47 49
58 58 58 57 55 53 52 52 51 49 48 48 50 56 60 58 53 50 53 56 56 59 60 59 56 54 53 53 53 52 53 53 53 53 54 54 54 55 54 54 53 52 52 53 53 53 53 53 52 50 50 49 48 47 48 48 49 50 50 52 54 53 54 55 56 57 57 58 58 57 59 57 53 51 50 51 52 51 51 51 51 51 51 52 52 51 49 49
58 58 58 58 57 57 56 56 54 52 53 54 56 59 55 48 49 52 54 53 53 53 57 61 61 58 57 54 52 51 51 51 51 52 52 52 52 52 51 51 51 51 51 51 52 53 52 53 53 51 51 50 49 49 49 49 50 52 53 54 55 54 53 54 56 56 56 59 60 60 60 57 54 53 50 50 53 52 52 51 50 51 51 52 53 51 50 49
60 58 57 57 58 59 60 59 58 56 57 58 61 62 55 48 48 50 51 52 52 52 54 58 59 59 59 58 56 54 52 51 50 51 51 51 51 51 49 49 49 49 50 48 50 53 52 53 55 53 53 53 51 51 52 52 53 55 56 56 55 54 53 52 54 56 57 60 62 61 60 57 55 53 49 50 52 51 51 50 50 51 51 52 52 52 51 50
61 61 60 58 58 60 61 61 59 58 61 64 65 63 59 54 50 49 49 51 51 53 54 55 56 57 58 58 59 57 56 55 53 52 51 51 52 51 49 49 49 48 48 46 49 53 52 53 55 55 54 54 53 53 54 55 56 57 58 57 54 53 53 53 54 56 57 59 60 59 59 58 57 55 52 53 54 51 50 50 50 51 51 51 51 50 50 49
61 62 62 61 60 60 61 61 60 60 63 67 68 65 61 57 54 53 53 52 53 54 54 53 55 55 55 56 58 59 58 59 58 55 54 54 53 52 50 50 50 49 48 49 51 53 53 52 55 57 56 56 56 56 58 58 57 56 55 54 53 53 54 54 55 56 56 57 59 58 59 60 58 56 55 56 56 54 51 50 49 50 50 49 48 48 48 48
62 62 62 61 61 61 62 62 62 61 63 65 65 65 64 61 59 58 57 56 57 57 55 54 55 56 56 55 56 57 57 58 59 59 59 58 57 55 54 52 52 51 51 51 53 54 55 56 57 59 59 58 59 58 58 57 54 53 53 53 54 54 54 55 57 57 55 56 57 57 62 63 56 54 56 56 57 55 52 51 50 49 47 46 46 47 47 47
63 63 62 61 62 62 62 64 65 64 64 65 65 63 64 64 63 62 61 59 60 59 57 55 55 57 58 56 57 58 56 57 58 59 60 61 60 58 58 56 55 54 54 55 56 56 57 58 59 60 61 60 59 57 55 55 54 54 54 55 55 55 55 55 57 59 57 58 56 56 63 61 50 49 53 53 55 54 50 50 50 48 46 45 46 47 48 50
64 64 63 62 63 63 63 64 66 65 65 66 65 63 63 65 66 65 64 63 63 63 61 59 58 57 57 56 56 57 56 56 57 58 58 59 59 59 59 60 58 57 58 59 59 58 59 60 61 62 62 62 61 59 57 57 58 58 58 58 58 59 60 59 60 61 60 60 58 57 64 58 44 46 51 49 51 51 49 49 49 48 48 48 49 49 50 52
64 65 64 63 63 64 65 66 66 67 67 65 65 64 63 64 67 67 66 65 65 65 65 63 61 60 59 57 57 57 56 56 56 57 56 54 56 57 58 59 58 57 58 60 61 61 61 63 64 64 64 64 64 62 62 62 63 63 63 63 62 63 63 61 61 61 61 63 61 60 66 58 43 45 49 48 51 52 51 51 50 51 52 51 51 50 50 51
64 65 65 64 64 66 67 68 67 68 67 66 66 67 64 64 66 67 66 65 65 66 66 66 64 64 62 61 61 60 59 59 57 56 54 53 54 55 56 57 57 56 57 58 59 60 61 62 63 65 66 67 67 66 67 67 67 67 66 65 65 64 64 63 62 61 62 64 62 64 70 60 46 47 50 49 53 54 53 53 52 52 52 50 50 49 48 48
63 64 64 64 64 67 69 69 68 68 67 67 67 68 67 66 66 66 65 64 65 66 67 66 65 65 63 62 61 59 57 58 58 57 56 56 56 56 55 55 57 57 57 57 57 58 59 59 60 62 66 69 70 69 70 69 67 67 65 64 63 62 61 61 59 58 61 64 65 67 70 62 51 50 52 51 53 53 52 53 53 52 51 50 51 50 48 48
61 63 63 63 64 67 70 71 70 69 69 69 68 68 69 70 69 67 66 65 64 64 65 65 64 64 64 61 60 58 54 51 51 54 56 56 56 57 56 55 55 56 56 56 56 57 59 60 61 62 64 67 67 67 68 67 65 64 63 62 61 59 57 57 57 59 62 65 66 67 67 63 56 53 52 53 54 55 55 54 54 53 52 50 51 51 51 51
60 61 62 61 62 65 69 72 72 71 71 71 71 69 70 71 72 72 71 70 68 65 64 65 65 65 66 64 61 60 58 53 50 50 51 52 53 54 54 54 53 54 55 55 55 54 55 58 59 60 62 63 62 62 63 63 63 61 60 60 59 57 55 56 59 63 64 64 67 67 63 63 62 56 52 54 55 55 56 55 55 55 54 51 52 53 54 53
60 60 60 60 61 63 66 69 70 70 69 70 71 71 70 71 72 73 73 72 72 70 69 69 68 67 68 67 65 64 63 61 58 53 50 50 51 51 52 51 50 51 52 52 52 51 52 54 55 56 58 59 60 60 60 61 63 62 61 60 59 58 57 59 63 66 65 65 68 66 62 65 65 57 52 54 56 55 54 55 57 58 56 54 55 56 56 55
60 60 59 60 61 62 63 65 66 66 67 68 69 71 71 71 71 72 73 72 71 72 73 72 71 70 69 69 70 69 67 67 66 62 57 55 54 54 54 53 51 51 51 51 52 52 54 55 55 55 56 57 59 61 61 61 64 65 64 63 62 61 62 63 66 67 66 65 66 65 66 68 66 58 54 55 56 54 54 56 58 58 57 59 60 59 57 56
62 60 60 61 61 61 61 62 63 64 66 68 70 71 71 71 71 71 73 73 71 71 72 72 71 71 71 72 73 73 72 70 69 68 65 64 63 63 62 61 59 57 55 53 53 54 56 57 56 57 58 59 59 61 61 61 63 65 66 66 65 65 66 67 67 66 65 66 66 66 69 69 63 59 58 57 56 55 57 59 60 59 59 61 62 59 56 56
64 63 63 63 63 62 61 61 62 63 65 67 69 71 71 70 70 70 72 74 73 71 71 71 69 70 72 73 74 75 75 74 74 72 71 71 70 70 70 70 69 68 66 63 59 58 58 58 58 59 62 62 61 60 60 59 60 62 64 66 68 69 71 70 68 66 66 68 67 66 69 69 62 60 62 60 58 58 59 58 59 61 61 60 60 57 54 54
67 67 66 66 65 64 63 63 63 64 65 66 66 67 68 67 66 66 69 71 73 73 72 71 69 70 72 73 73 74 74 75 76 77 77 77 76 75 74 74 74 74 75 73 71 68 66 64 62 61 62 63 63 62 63 63 65 65 64 65 68 69 69 69 69 69 69 68 67 67 69 69 65 64 65 64 61 60 59 57 58 61 61 59 57 56 53 53
Wind_Direction
195 194 194 193 192 191 190 190 189 190 190 190 190 191 192 192 192 191 192 192 192 192 193 193 192 191 191 191 192 193 194 196 197 199 200 201 203 204 207 208 210 212 215 217 220 221 223 225 227 228 229 230 230 230 231 231 231 232 233 232 232 233 234 232 233 237 244 252 261 271 280 290 299 301 295 293 319 335 342 340 341 348 353 356 356 353 351 349
196 194 194 194 193 192 191 190 191 191 191 192 192 193 194 194 193 193 193 194 193 193 194 195 194 193 193 193 193 195 196 198 199 201 202 204 205 207 208 210 211 213 215 218 220 221 222 224 225 225 225 225 226 227 228 228 228 228 228 229 231 233 233 231 234 239 245 252 260 270 279 289 294 296 293 286 295 320 332 330 333 342 347 350 352 352 351 350
196 195 195 195 194 193 192 192 192 192 192 193 194 195 196 195 195 195 195 195 194 195 197 197 197 196 195 195 196 197 199 201 202 203 205 206 208 210 211 213 214 215 217 219 221 222 223 223 223 222 222 222 222 224 225 225 226 226 227 230 232 232 231 231 235 241 245 250 258 268 278 287 292 294 294 285 285 305 317 321 329 335 338 341 343 345 348 349
196 196 195 195 195 193 193 193 193 194 194 195 196 197 197 197 197 197 196 196 197 197 199 200 200 199 198 198 199 201 203 204 206 207 208 210 211 213 215 217 218 219 220 221 222 222 222 221 221 220 219 219 220 220 221 223 224 226 228 231 233 232 231 232 236 241 245 249 256 267 277 284 288 290 291 282 279 291 302 314 323 327 330 332 333 334 338 343
196 196 196 195 195 194 194 194 195 195 196 197 198 198 199 199 199 199 198 198 199 200 201 202 202 201 200 201 202 205 207 208 209 211 212 214 215 217 219 220 221 221 222 221 220 220 219 219 218 217 216 216 217 218 219 221 222 224 227 230 232 232 232 234 238 242 245 249 256 266 274 281 285 287 287 280 276 282 292 306 316 318 322 324 325 326 329 333
196 196 196 196 194 194 194 195 196 197 198 199 199 200 200 201 201 200 200 200 201 202 203 204 205 204 203 204 205 208 211 212 213 214 215 217 218 219 220 221 221 220 220 219 217 216 215 215 215 214 214 214 216 217 218 220 222 224 226 229 231 232 233 235 239 242 246 251 257 266 273 279 282 284 284 278 275 279 288 299 308 312 315 318 320 322 324 328
197 195 196 196 195 194 195 196 198 198 199 200 201 201 201 201 201 201 202 202 203 204 205 207 207 207 207 207 209 211 213 214 216 217 218 219 219 219 219 219 219 217 216 215 214 212 212 213 213 213 213 214 215 216 218 220 222 223 226 229 231 232 234 236 239 243 247 252 258 266 273 277 278 279 279 275 274 280 288 296 304 308 311 314 317 320 322 325
197 196 195 195 195 195 196 197 198 200 201 202 202 202 202 202 202 202 203 204 205 205 207 208 209 210 209 210 212 214 214 215 217 218 219 219 219 219 218 218 216 215 213 213 212 211 211 212 212 213 214 215 216 218 219 221 223 224 226 229 231 232 234 237 240 244 248 253 260 267 271 273 273 273 273 270 273 279 286 294 301 305 309 312 315 318 321 324
198 197 195 195 196 196 197 198 200 201 202 203 203 203 203 203 203 204 205 206 207 207 208 210 211 212 212 212 214 216 216 217 219 219 219 219 219 218 217 216 215 213 212 212 212 212 212 213 214 216 216 217 218 219 221 223 224 226 228 230 232 233 235 237 241 244 249 255 261 265 266 266 267 268 266 264 270 277 283 291 298 302 306 310 314 317 319 322
199 198 196 195 196 197 198 199 201 202 203 204 204 204 204 204 204 205 207 208 208 209 210 212 213 214 214 214 215 217 218 218 220 220 220 219 219 218 217 215 214 214 213 213 213 213 214 215 217 218 219 220 220 222 224 225 226 227 229 231 233 234 235 238 241 246 251 256 259 259 258 260 262 262 260 260 265 274 280 287 293 298 302 307 311 315 317 320
200 199 198 197 197 198 199 200 202 203 204 204 205 205 205 205 206 207 208 209 210 211 212 214 215 216 216 217 218 219 219 220 221 222 221 220 219 219 217 216 215 215 214 214 215 216 217 218 219 221 222 223 224 225 227 227 228 229 230 231 233 234 235 238 242 247 251 252 252 251 251 254 258 257 256 258 263 270 278 284 289 294 298 303 308 311 314 317
201 200 199 199 199 199 201 202 203 204 205 205 206 206 206 207 207 208 209 210 211 213 214 215 217 218 219 219 219 220 221 222 222 223 223 222 221 220 219 218 216 216 216 217 218 218 220 221 222 224 225 226 228 229 229 230 230 230 231 231 232 233 235 238 242 246 247 247 246 246 245 248 253 256 252 254 264 269 275 282 288 292 296 302 305 309 312 314
202 202 201 201 201 202 202 203 204 205 206 207 207 207 208 209 210 210 211 212 213 214 215 217 218 219 220 220 221 221 222 223 223 224 224 224 223 222 221 219 218 218 218 219 220 221 223 224 226 227 228 229 230 231 232 232 231 231 231 232 232 234 236 240 243 242 243 242 243 244 242 245 253 258 254 253 263 270 276 283 288 292 297 301 304 307 309 311
202 203 203 203 203 203 204 205 206 207 207 208 209 209 210 210 211 212 213 214 215 216 217 218 219 220 221 221 222 222 223 223 224 225 225 225 225 224 223 221 220 219 220 221 222 223 225 227 228 229 230 231 232 232 232 233 233 232 232 232 232 235 237 240 242 240 240 240 242 244 241 249 258 261 259 261 265 270 278 284 289 293 297 301 303 306 307 308
203 204 204 205 205 205 206 206 207 208 209 210 210 211 212 212 213 214 215 216 217 217 218 219 220 222 223 223 223 224 224 224 225 226 226 227 226 226 224 223 222 220 221 222 223 224 226 228 230 231 231 232 233 233 233 233 233 232 232 232 233 238 239 240 241 240 240 241 244 247 244 251 263 265 265 270 274 276 281 286 289 293 296 300 302 304 305 306
205 205 206 206 207 208 208 208 209 209 210 211 212 213 214 214 215 216 217 218 219 219 220 221 221 223 224 224 225 226 226 226 226 226 227 228 227 227 226 225 224 222 222 223 223 225 227 229 230 232 233 233 234 234 234 234 234 232 232 232 235 240 241 240 242 242 241 243 246 250 248 252 264 269 269 273 277 280 284 287 289 292 295 298 299 301 303 305
207 206 207 207 208 209 211 211 211 212 212 213 214 215 215 216 217 218 219 220 221 221 222 223 223 224 226 225 226 227 228 227 227 227 227 228 228 228 227 227 226 225 224 224 225 226 227 230 231 233 234 234 235 235 235 235 234 232 233 234 237 241 243 241 243 244 244 246 248 253 253 254 261 267 272 275 277 280 284 286 288 291 293 295 297 299 302 304
208 209 208 208 209 210 211 213 214 214 215 215 216 217 217 218 219 220 221 222 222 223 223 224 224 226 227 226 227 229 230 230 229 229 228 229 229 229 229 228 228 227 227 226 226 227 228 230 232 233 234 235 236 236 236 235 233 233 234 237 239 241 243 243 244 247 249 250 251 255 256 256 260 266 272 275 276 279 283 285 287 289 291 293 295 298 301 304
209 210 211 210 211 211 212 213 214 216 217 218 218 219 219 220 221 222 222 223 224 224 225 225 226 227 228 228 230 231 232 232 232 231 230 230 230 230 230 230 230 229 229 229 228 229 230 231 232 233 234 235 235 234 234 234 233 235 237 239 240 241 244 245 247 249 251 253 254 258 259 258 263 268 272 274 275 278 282 283 284 287 289 291 294 298 300 304
209 211 212 212 213 213 213 214 215 216 217 219 220 220 221 222 223 224 224 225 226 226 227 227 228 230 231 231 232 233 234 234 233 233 232 232 231 231 231 231 231 231 231 231 231 231 231 232 233 233 234 233 233 234 235 235 235 237 239 240 241 243 245 248 251 252 253 255 256 259 261 260 264 269 272 274 276 278 278 277 280 283 286 290 295 297 299 304
210 211 212 213 214 215 215 216 217 217 218 219 220 221 223 223 225 226 226 227 228 228 229 229 229 230 231 232 233 233 234 235 235 235 234 234 234 233 233 233 233 233 233 233 233 233 233 233 233 234 234 234 235 236 236 236 237 238 240 241 242 244 247 250 253 255 256 258 258 260 263 263 265 269 271 274 277 277 275 275 277 279 282 289 292 294 299 304
213 213 213 214 214 215 216 217 218 219 220 220 221 222 223 224 226 226 227 229 229 229 229 230 230 230 231 232 233 234 235 236 236 236 236 236 236 235 235 235 235 234 234 234 234 234 234 234 234 234 235 235 236 237 237 237 238 239 241 243 244 246 249 251 253 256 259 260 260 262 265 265 265 267 270 272 274 275 274 276 277 278 282 287 288 292 298 301
217 215 215 215 215 216 217 218 219 220 221 222 223 223 224 225 226 227 228 229 229 230 230 230 231 231 231 232 233 234 235 236 236 237 237 237 237 237 236 237 236 236 235 236 236 236 236 235 235 235 235 236 237 238 238 238 239 241 242 244 246 246 249 252 254 256 259 261 262 263 266 267 265 265 266 268 271 273 273 275 277 281 284 285 286 291 297 299
220 219 217 217 217 218 218 218 219 220 221 222 223 224 225 226 227 227 228 229 230 230 230 231 231 231 231 232 233 234 235 236 237 238 238 238 238 238 237 238 238 237 237 237 237 237 237 236 236 237 236 236 238 239 240 240 240 242 243 244 246 247 249 252 255 256 258 261 263 265 268 267 264 262 262 263 267 270 271 273 277 281 284 284 286 291 296 298
220 221 220 219 218 219 220 220 220 221 221 222 223 224 226 227 228 229 229 230 231 231 231 231 232 232 232 232 233 234 236 236 237 238 238 239 239 239 239 239 240 239 239 239 239 239 239 238 238 239 238 238 240 241 242 242 242 243 243 245 246 248 249 251 254 256 258 260 263 267 270 269 265 260 258 259 263 266 269 272 276 280 281 282 285 290 294 295
223 222 222 222 221 219 220 221 222 223 222 223 223 224 225 226 227 228 229 231 231 231 231 232 232 233 232 233 234 235 236 237 237 239 239 239 240 240 241 240 241 241 241 240 241 241 240 240 241 241 241 241 241 243 244 244 244 244 244 245 247 248 249 250 252 255 257 260 263 265 269 272 270 263 259 260 261 261 265 271 275 278 279 281 285 290 292 292
226 225 224 224 224 223 222 222 223 224 224 225 224 224 225 226 227 228 229 231 231 231 232 233 233 234 234 234 236 237 238 238 239 240 241 241 242 242 242 242 242 242 242 242 242 242 242 242 242 243 243 242 243 243 245 246 246 245 244 245 247 248 249 250 252 254 256 260 262 263 266 271 273 269 264 261 261 261 263 268 273 275 277 280 285 288 289 290
224 226 226 226 226 226 225 224 224 225 226 227 227 226 226 226 227 227 228 230 231 230 231 233 234 234 235 235 236 238 238 239 240 242 242 243 244 243 244 244 244 244 243 243 243 242 242 242 243 242 242 242 242 243 245 246 246 246 245 246 247 249 250 252 253 254 256 257 261 263 264 268 272 274 273 266 261 262 263 266 268 271 275 279 283 286 287 288
216 218 223 226 226 226 226 226 227 227 227 228 228 228 228 228 228 228 228 230 232 231 231 233 234 234 235 236 237 238 239 239 240 241 242 243 243 243 244 244 244 244 244 243 244 243 242 242 243 243 243 243 243 244 245 247 248 248 248 249 249 250 252 253 253 254 256 256 260 263 263 265 269 274 278 275 268 264 263 264 266 269 273 277 280 283 285 286
218 215 217 221 223 224 226 227 228 229 229 229 229 229 229 229 228 228 229 231 233 234 232 233 234 235 236 237 238 239 240 240 240 241 241 242 243 243 243 244 244 244 245 244 245 245 244 244 244 244 245 245 245 246 247 248 249 250 251 252 252 252 252 253 254 255 256 257 259 262 262 264 267 270 275 276 275 272 268 267 268 271 273 275 278 280 282 285
226 221 217 217 219 222 225 227 229 229 230 230 230 229 229 230 228 228 231 234 235 236 234 232 234 235 236 237 238 239 240 241 241 241 241 242 243 243 243 244 244 245 246 246 246 246 246 245 245 246 246 247 247 247 248 249 250 250 251 252 253 253 254 254 255 256 257 258 259 261 262 262 265 270 275 275 276 277 276 273 272 273 274 275 277 279 281 284
228 225 223 223 225 226 226 228 229 229 230 231 231 231 231 230 229 231 233 233 235 237 235 234 234 235 237 237 237 238 239 240 240 240 241 241 242 243 244 244 245 246 247 247 248 247 247 247 246 246 246 247 248 248 249 249 250 251 252 253 255 257 257 257 257 257 258 259 259 261 261 261 264 270 273 273 276 280 281 280 277 275 276 277 278 280 282 283
229 227 226 227 228 229 230 230 230 229 230 231 232 232 232 232 232 234 235 233 234 236 236 234 233 234 235 236 237 237 237 238 239 239 239 239 240 241 241 243 244 245 246 247 247 247 247 247 247 247 246 247 248 249 250 251 252 253 254 255 257 258 259 259 258 258 258 258 258 259 260 263 268 270 269 271 276 279 280 280 279 280 280 281 281 281 283 284
230 229 228 227 227 228 229 230 231 229 228 231 233 233 233 234 233 233 235 235 235 237 237 235 233 232 233 235 236 237 237 237 238 239 239 238 239 240 241 242 244 245 246 247 248 248 249 249 248 249 249 249 250 251 252 253 253 253 254 254 254 255 258 259 259 260 260 260 260 260 261 264 268 270 269 271 272 273 274 276 279 281 282 283 284 283 283 285
224 227 228 229 228 228 227 228 228 227 226 228 232 234 235 234 233 232 234 236 236 237 239 239 236 234 234 234 235 236 237 238 238 239 240 239 240 241 241 242 244 245 246 248 250 250 251 251 250 251 251 251 252 252 253 253 253 253 253 254 255 257 259 260 260 261 263 263 262 261 262 264 267 268 270 272 272 272 273 275 278 280 281 281 282 283 283 284
219 220 223 226 229 229 229 227 226 225 226 227 229 232 234 233 232 232 234 235 234 234 237 240 239 237 236 234 235 236 236 238 239 240 240 241 241 240 240 241 243 244 246 248 250 250 250 250 249 250 250 250 251 251 251 251 252 253 253 254 257 258 257 258 260 260 261 262 262 262 264 266 268 269 270 271 273 274 275 276 277 277 277 278 280 281 282 282
222 220 219 221 224 227 229 229 228 225 226 228 228 230 232 231 230 231 232 233 234 233 236 240 240 239 238 237 236 237 237 238 238 240 241 241 241 240 241 242 242 243 244 245 247 247 247 248 247 247 248 247 247 248 248 249 250 251 252 254 255 254 253 255 257 257 257 259 262 264 266 268 268 269 270 270 271 273 274 276 275 274 274 275 277 278 279 281
228 225 222 221 220 221 224 227 228 227 226 227 229 231 232 231 229 231 233 233 234 234 235 238 241 240 240 239 238 237 238 239 238 239 240 241 241 240 240 241 241 241 242 242 244 244 244 246 246 244 245 245 245 245 247 248 250 251 252 252 252 252 253 254 255 257 259 261 263 265 265 266 267 270 273 273 273 274 273 273 272 273 273 273 275 276 279 281
232 230 228 226 224 221 219 221 224 225 225 226 227 229 231 231 230 231 234 234 234 235 235 236 238 240 239 239 239 238 238 239 238 238 239 239 239 239 238 239 239 238 239 240 242 243 242 244 244 243 242 243 243 244 246 248 249 250 251 252 252 252 254 255 255 257 259 261 263 264 263 264 267 271 273 274 275 275 274 273 273 273 274 276 278 279 280 282
234 233 231 229 229 226 222 219 219 221 224 225 226 228 228 229 230 231 233 233 233 235 235 235 236 238 238 238 239 238 237 239 238 238 239 238 237 237 237 238 239 238 239 240 242 243 243 244 245 244 242 242 243 245 247 249 250 251 253 253 253 254 255 256 257 258 258 260 262 263 263 265 269 272 272 274 275 275 276 276 276 276 277 279 280 280 281 281
235 235 234 233 232 231 228 225 221 220 223 225 226 226 227 229 230 232 233 234 234 235 235 235 235 237 238 238 239 239 238 239 238 238 239 238 237 237 238 238 239 240 240 242 243 244 245 246 247 247 246 246 247 247 249 250 250 251 252 253 254 255 255 255 256 256 257 257 259 260 263 267 271 272 272 273 274 276 276 276 276 278 279 279 278 278 280 280
235 235 235 235 235 234 233 232 227 224 224 225 225 226 227 228 230 231 232 233 235 236 236 236 236 238 239 239 240 240 240 240 240 238 238 237 237 238 239 239 239 240 241 243 244 245 246 247 247 248 248 248 249 248 249 249 250 250 251 252 252 252 252 253 254 256 257 257 258 260 263 268 271 272 272 272 273 274 275 275 276 278 278 277 277 277 278 279
236 236 235 236 237 236 236 235 232 229 226 224 225 225 224 224 226 228 229 231 233 235 236 237 238 239 240 240 241 242 242 243 242 240 239 237 237 238 239 240 240 240 241 242 244 245 245 246 247 248 249 248 248 248 249 249 249 250 250 251 252 253 254 254 255 258 259 260 262 264 266 269 270 269 270 271 272 274 274 275 276 276 276 277 278 279 278 278
236 236 235 236 237 238 238 236 235 233 229 227 228 227 223 222 222 223 225 228 230 232 234 236 238 240 242 243 245 246 247 247 246 243 240 238 237 237 238 240 240 241 241 242 243 244 245 246 247 248 249 249 250 250 250 251 252 252 253 254 255 256 258 258 259 261 261 263 266 266 267 269 270 270 270 270 271 273 275 277 278 277 278 278 277 277 277 277
235 235 235 235 236 237 239 238 237 236 234 233 233 230 227 225 222 221 222 224 225 228 230 233 235 236 238 240 241 242 245 247 248 246 244 241 238 236 235 238 239 240 241 242 243 243 244 244 244 244 247 249 251 252 253 253 254 256 256 257 258 259 260 261 261 261 261 264 265 264 266 269 270 270 271 271 273 275 276 277 277 276 277 277 277 277 277 278
233 234 235 235 236 236 238 238 238 237 236 236 236 233 231 230 227 224 224 223 223 224 226 228 230 231 231 232 233 234 235 237 239 242 243 243 241 238 236 237 239 240 242 243 244 244 244 244 243 244 246 248 250 252 253 254 254 255 256 257 258 257 257 258 257 258 261 264 263 263 267 270 269 267 269 272 274 275 275 275 275 275 275 276 277 278 279 279
232 233 234 235 236 237 237 237 238 239 238 238 238 235 234 234 232 230 229 227 226 225 224 225 225 226 228 229 230 232 232 230 229 230 233 236 237 238 237 237 237 239 240 242 243 244 245 245 246 247 248 249 249 250 252 253 253 254 254 254 254 255 255 255 256 259 263 263 263 265 268 269 269 268 268 270 271 272 274 276 276 276 276 277 278 278 278 278
232 232 233 234 236 237 238 237 238 239 240 240 239 238 236 236 235 235 235 233 231 230 229 227 226 226 228 229 230 231 231 230 228 226 226 228 230 232 233 232 232 234 236 237 239 239 241 242 244 246 247 247 247 248 249 252 252 252 252 252 251 252 252 253 257 260 262 262 264 267 266 267 269 270 269 269 270 271 273 274 274 275 276 278 277 276 276 277
233 232 232 234 236 237 238 238 237 237 238 239 239 238 238 237 237 237 239 239 237 236 235 234 231 230 231 232 232 233 232 232 232 230 229 229 231 232 232 232 231 231 232 233 235 237 239 240 242 244 245 245 246 248 249 251 252 253 253 252 251 251 252 254 258 260 260 260 263 265 265 266 269 271 270 269 270 271 271 270 270 272 273 273 272 272 274 275
233 233 233 235 236 237 237 237 237 236 236 237 237 237 238 238 237 237 239 240 241 240 240 239 237 235 235 236 236 236 236 236 237 235 234 234 235 235 236 236 236 236 235 235 236 239 241 243 243 244 245 245 245 248 249 251 253 253 253 253 253 254 256 257 258 259 258 260 263 265 266 267 269 271 270 269 268 269 268 268 269 270 269 269 270 271 273 274
234 234 235 235 235 235 236 237 237 238 237 237 237 238 239 239 238 238 239 240 241 242 241 240 239 239 239 239 239 239 239 239 240 239 238 238 238 238 238 238 238 239 239 239 240 241 242 243 243 244 247 247 246 247 247 248 250 251 251 253 255 257 259 259 259 259 260 262 264 264 265 267 269 270 270 268 268 268 269 270 272 272 270 269 270 271 271 272
234 235 236 237 236 235 236 236 237 237 238 238 238 238 239 240 239 239 240 240 241 242 243 242 241 241 241 241 241 241 241 241 241 241 241 241 240 240 240 240 239 240 240 241 242 243 244 244 244 244 247 248 245 245 246 246 247 247 247 251 255 257 258 259 259 259 260 262 263 262 264 267 268 267 268 269 270 271 271 270 269 268 267 268 269 271 271 272
Height
5759 5762 5765 5768 5771 5775 5778 5782 5785 5788 5791 5793 5796 5798 5801 5803 5805 5807 5810 5812 5814 5815 5817 5819 5821 5822 5824 5826 5828 5830 5832 5834 5836 5838 5840 5842 5844 5846 5847 5849 5851 5852 5854 5855 5857 5858 5860 5861 5862 5864 5865 5866 5867 5868 5869 5870 5871 5872 5872 5873 5874 5875 5876 5877 5878 5878 5879 5880 5880 5880 5880 5880 5880 5880 5880 5880 5879 5878 5878 5877 5877 5877 5877 5876 5876 5876 5875 5875
5757 5760 5764 5767 5770 5773 5777 5780 5783 5786 5789 5792 5794 5797 5799 5802 5804 5806 5808 5810 5812 5814 5816 5818 5820 5821 5823 5825 5827 5829 5831 5833 5835 5837 5839 5841 5843 5844 5846 5848 5849 5851 5852 5854 5855 5857 5858 5859 5861 5862 5863 5864 5866 5867 5868 5869 5870 5871 5871 5872 5873 5874 5875 5876 5877 5878 5878 5879 5879 5879 5879 5879 5879 5880 5879 5879 5879 5878 5878 5877 5877 5877 5876 5876 5876 5876 5875 5875
5755 5758 5762 5765 5769 5772 5775 5779 5782 5784 5787 5790 5793 5795 5798 5800 5802 5805 5807 5809 5811 5812 5814 5816 5818 5820 5822 5824 5826 5828 5829 5831 5834 5836 5838 5839 5841 5843 5845 5846 5848 5849 5851 5852 5853 5855 5857 5858 5859 5861 5862 5863 5864 5865 5866 5868 5869 5869 5870 5871 5872 5873 5874 5875 5876 5877 5878 5878 5878 5878 5878 5878 5878 5879 5879 5878 5878 5878 5877 5877 5876 5876 5876 5876 5876 5875 5875 5875
5753 5756 5760 5763 5767 5771 5774 5777 5780 5783 5786 5788 5791 5794 5796 5799 5801 5803 5805 5807 5809 5811 5813 5815 5817 5819 5821 5822 5824 5826 5828 5830 5832 5834 5836 5838 5840 5841 5843 5845 5846 5848 5849 5850 5852 5853 5855 5856 5858 5859 5860 5862 5863 5864 5865 5866 5867 5868 5869 5870 5871 5872 5873 5874 5875 5876 5877 5877 5877 5877 5877 5877 5877 5878 5878 5877 5877 5877 5877 5876 5876 5876 5876 5875 5875 5875 5875 5874
5750 5754 5758 5761 5765 5769 5772 5775 5778 5781 5784 5787 5790 5792 5795 5797 5800 5802 5804 5806 5808 5810 5812 5813 5815 5817 5819 5821 5823 5825 5827 5829 5831 5833 5834 5836 5838 5840 5841 5843 5844 5846 5847 5849 5850 5852 5853 5855 5856 5857 5859 5860 5861 5863 5864 5865 5866 5867 5868 5869 5870 5871 5872 5873 5874 5875 5876 5876 5876 5876 5876 5876 5876 5877 5877 5877 5876 5876 5876 5876 5875 5875 5875 5875 5875 5874 5874 5874
5748 5751 5755 5759 5763 5767 5770 5774 5777 5779 5782 5785 5788 5790 5793 5795 5798 5800 5802 5804 5807 5808 5810 5812 5814 5816 5818 5820 5822 5824 5825 5827 5829 5831 5833 5834 5836 5838 5839 5841 5843 5844 5846 5847 5848 5850 5852 5853 5854 5856 5857 5859 5860 5862 5863 5864 5865 5866 5867 5868 5869 5870 5871 5872 5873 5874 5875 5875 5875 5875 5875 5875 5875 5876 5876 5876 5875 5875 5875 5875 5875 5874 5874 5874 5874 5874 5874 5873
5745 5748 5752 5756 5760 5764 5768 5772 5775 5778 5780 5783 5786 5788 5791 5793 5796 5798 5801 5803 5805 5807 5809 5810 5812 5814 5816 5818 5820 5822 5824 5826 5828 5829 5831 5833 5834 5836 5838 5839 5841 5843 5844 5845 5847 5848 5850 5852 5853 5854 5856 5857 5859 5860 5862 5863 5863 5865 5866 5867 5868 5869 5870 5871 5872 5873 5873 5874 5874 5874 5874 5874 5874 5875 5875 5875 5874 5874 5874 5874 5874 5874 5873 5873 5873 5873 5873 5872
5743 5746 5750 5754 5758 5762 5766 5769 5773 5776 5778 5781 5784 5786 5789 5791 5794 5796 5799 5801 5803 5805 5807 5809 5811 5813 5815 5817 5819 5820 5822 5824 5826 5828 5829 5831 5833 5834 5836 5838 5840 5841 5843 5844 5845 5847 5849 5850 5852 5853 5854 5856 5857 5859 5860 5861 5862 5863 5864 5865 5866 5868 5869 5870 5871 5871 5872 5872 5873 5873 5873 5873 5873 5873 5874 5874 5874 5874 5874 5873 5873 5873 5872 5872 5872 5872 5872 5872
5741 5744 5747 5751 5755 5759 5763 5767 5770 5773 5776 5779 5781 5784 5787 5789 5792 5795 5797 5799 5801 5803 5805 5807 5809 5811 5813 5815 5817 5819 5821 5823 5824 5826 5828 5829 5831 5833 5834 5836 5838 5840 5841 5843 5844 5846 5847 5849 5850 5852 5853 5855 5856 5857 5858 5859 5861 5862 5863 5864 5865 5866 5867 5868 5869 5870 5871 5871 5871 5871 5872 5871 5871 5872 5873 5873 5873 5873 5873 5873 5872 5872 5872 5871 5871 5871 5871 5870
5739 5742 5745 5748 5752 5756 5760 5764 5767 5771 5774 5776 5779 5782 5785 5787 5790 5793 5795 5797 5800 5802 5804 5806 5808 5809 5811 5813 5815 5817 5819 5821 5823 5824 5826 5828 5829 5831 5833 5835 5836 5838 5840 5841 5843 5844 5846 5847 5849 5850 5852 5853 5854 5855 5857 5858 5859 5861 5862 5863 5864 5865 5866 5867 5868 5869 5869 5870 5870 5870 5870 5870 5870 5871 5872 5872 5872 5872 5872 5872 5872 5871 5871 5871 5871 5870 5870 5869
5736 5739 5743 5746 5749 5753 5757 5761 5764 5768 5771 5774 5777 5780 5782 5785 5788 5790 5793 5795 5797 5800 5802 5804 5806 5808 5809 5811 5813 5815 5818 5820 5821 5823 5824 5826 5828 5829 5831 5833 5835 5836 5838 5840 5841 5843 5844 5846 5847 5849 5850 5851 5853 5854 5855 5856 5858 5859 5860 5861 5862 5864 5865 5866 5866 5867 5868 5868 5868 5868 5869 5869 5869 5870 5871 5871 5871 5871 5871 5871 5871 5871 5870 5870 5870 5869 5869 5868
5733 5736 5740 5744 5747 5751 5754 5758 5762 5765 5768 5771 5774 5777 5780 5783 5785 5788 5790 5793 5795 5797 5800 5802 5804 5806 5807 5809 5811 5814 5816 5818 5819 5821 5823 5824 5826 5828 5829 5831 5833 5835 5836 5838 5840 5841 5843 5844 5845 5847 5848 5849 5851 5852 5853 5855 5856 5857 5858 5860 5861 5862 5863 5864 5865 5865 5866 5866 5866 5867 5868 5868 5867 5869 5870 5870 5870 5870 5870 5870 5870 5870 5870 5869 5869 5868 5868 5867
5730 5733 5737 5741 5744 5748 5752 5755 5759 5762 5765 5769 5772 5775 5778 5780 5783 5785 5788 5790 5792 5795 5797 5799 5801 5803 5805 5807 5809 5812 5814 5815 5818 5819 5821 5823 5824 5826 5828 5830 5831 5833 5835 5836 5838 5839 5841 5842 5844 5845 5846 5848 5849 5850 5852 5853 5854 5856 5857 5858 5859 5860 5861 5862 5863 5864 5864 5864 5865 5865 5867 5866 5866 5868 5869 5869 5869 5869 5869 5869 5869 5869 5868 5868 5868 5867 5867 5866
5726 5730 5734 5737 5741 5744 5748 5752 5755 5759 5762 5765 5769 5772 5775 5778 5780 5783 5785 5787 5790 5792 5794 5797 5799 5801 5802 5805 5807 5809 5811 5813 5816 5817 5819 5821 5823 5824 5826 5828 5829 5831 5833 5834 5836 5837 5839 5840 5842 5843 5844 5846 5847 5848 5850 5851 5852 5854 5855 5856 5858 5859 5860 5861 5861 5862 5862 5863 5863 5864 5865 5865 5865 5866 5867 5867 5868 5868 5868 5868 5867 5867 5867 5867 5867 5866 5866 5865
5722 5726 5730 5733 5737 5740 5744 5748 5751 5755 5759 5762 5765 5768 5772 5774 5777 5780 5782 5785 5787 5789 5792 5794 5796 5798 5800 5802 5805 5807 5809 5811 5813 5815 5817 5819 5821 5822 5824 5826 5827 5829 5830 5832 5834 5835 5837 5838 5839 5841 5842 5844 5845 5846 5848 5849 5850 5852 5853 5854 5856 5857 5858 5859 5859 5860 5860 5861 5861 5862 5864 5864 5863 5864 5865 5866 5866 5866 5866 5866 5866 5866 5865 5865 5865 5865 5864 5864
5719 5723 5727 5731 5734 5737 5740 5744 5747 5751 5755 5758 5761 5765 5768 5771 5774 5776 5779 5782 5784 5786 5789 5791 5793 5795 5797 5800 5802 5805 5807 5809 5811 5813 5815 5816 5818 5820 5822 5823 5825 5827 5828 5830 5831 5833 5834 5836 5837 5839 5840 5841 5843 5844 5846 5847 5848 5850 5851 5853 5854 5855 5855 5856 5857 5858 5858 5859 5860 5861 5862 5863 5862 5862 5863 5864 5864 5864 5865 5864 5864 5864 5864 5863 5863 5863 5862 5862
5716 5719 5723 5727 5730 5734 5738 5741 5744 5747 5751 5754 5757 5761 5764 5767 5770 5773 5775 5778 5780 5783 5786 5787 5790 5792 5794 5797 5800 5802 5804 5806 5808 5810 5812 5814 5816 5818 5819 5821 5823 5824 5826 5827 5829 5830 5832 5833 5835 5836 5838 5839 5841 5842 5844 5845 5846 5848 5849 5851 5852 5853 5853 5854 5854 5855 5856 5857 5858 5859 5860 5862 5861 5860 5861 5862 5863 5863 5863 5863 5862 5862 5862 5862 5861 5861 5861 5860
5712 5716 5719 5722 5726 5730 5733 5737 5741 5744 5747 5750 5753 5756 5760 5763 5766 5769 5771 5774 5777 5780 5782 5784 5787 5789 5791 5795 5797 5799 5801 5803 5805 5808 5810 5811 5813 5815 5817 5818 5820 5822 5823 5825 5826 5828 5829 5831 5832 5834 5835 5837 5839 5840 5841 5841 5843 5845 5847 5849 5850 5850 5850 5851 5852 5853 5854 5855 5856 5857 5858 5860 5859 5859 5859 5860 5861 5861 5861 5861 5860 5860 5859 5859 5859 5859 5859 5859
5708 5712 5715 5718 5722 5725 5729 5733 5736 5740 5743 5747 5750 5753 5756 5759 5762 5765 5767 5770 5773 5775 5778 5781 5784 5786 5789 5792 5794 5796 5798 5800 5803 5805 5807 5809 5810 5812 5814 5815 5817 5819 5820 5822 5824 5825 5827 5828 5830 5831 5833 5835 5836 5837 5837 5838 5841 5844 5845 5846 5847 5848 5848 5849 5850 5850 5851 5852 5853 5854 5856 5858 5857 5857 5858 5858 5859 5860 5860 5859 5859 5858 5857 5857 5857 5857 5857 5857
5704 5707 5711 5714 5718 5721 5725 5728 5732 5735 5739 5742 5746 5749 5752 5755 5758 5760 5763 5767 5769 5772 5775 5778 5781 5783 5786 5789 5791 5793 5795 5797 5799 5802 5804 5806 5807 5809 5811 5813 5814 5816 5817 5819 5821 5823 5824 5825 5827 5829 5830 5832 5833 5833 5834 5837 5840 5842 5843 5843 5845 5846 5846 5846 5847 5848 5848 5849 5851 5852 5852 5855 5856 5855 5856 5856 5856 5858 5858 5858 5857 5856 5855 5855 5855 5855 5855 5855
5700 5703 5707 5710 5713 5717 5721 5724 5728 5731 5734 5738 5741 5744 5748 5751 5754 5757 5761 5763 5765 5768 5771 5774 5777 5779 5782 5785 5787 5789 5792 5794 5796 5798 5800 5802 5804 5806 5808 5809 5811 5813 5815 5817 5818 5820 5821 5822 5824 5826 5827 5829 5830 5830 5833 5835 5837 5839 5840 5840 5842 5843 5843 5844 5844 5844 5845 5846 5848 5849 5849 5852 5854 5853 5854 5853 5854 5856 5856 5855 5855 5854 5854 5853 5853 5852 5853 5852
5697 5700 5703 5706 5709 5713 5716 5720 5723 5727 5730 5734 5737 5741 5744 5746 5749 5753 5756 5758 5760 5764 5766 5770 5773 5775 5778 5781 5783 5786 5788 5790 5793 5795 5797 5799 5801 5803 5805 5806 5808 5809 5812 5813 5814 5816 5817 5819 5821 5823 5825 5826 5827 5828 5830 5832 5834 5836 5837 5838 5840 5840 5841 5841 5841 5841 5842 5842 5845 5846 5845 5848 5852 5851 5852 5852 5851 5853 5854 5853 5852 5852 5852 5852 5851 5850 5850 5850
5694 5697 5700 5703 5706 5709 5712 5716 5719 5723 5726 5730 5733 5736 5739 5742 5745 5748 5750 5752 5755 5758 5761 5765 5768 5771 5775 5777 5780 5782 5784 5786 5789 5791 5794 5796 5797 5799 5801 5803 5804 5806 5808 5809 5811 5812 5814 5816 5818 5820 5822 5823 5823 5825 5827 5829 5831 5833 5834 5835 5836 5837 5838 5837 5837 5838 5839 5838 5841 5842 5841 5843 5848 5849 5850 5850 5849 5850 5851 5850 5850 5850 5850 5849 5848 5848 5848 5847
5690 5693 5696 5700 5703 5706 5709 5712 5715 5719 5722 5725 5729 5731 5735 5738 5740 5743 5745 5747 5750 5753 5757 5760 5763 5767 5770 5773 5776 5778 5780 5782 5785 5787 5789 5791 5793 5795 5797 5799 5800 5802 5805 5806 5807 5808 5810 5812 5815 5817 5818 5819 5820 5821 5824 5826 5828 5829 5831 5832 5832 5833 5834 5834 5834 5835 5835 5835 5837 5839 5837 5838 5843 5845 5847 5848 5847 5847 5848 5847 5847 5847 5847 5846 5845 5846 5845 5844
5685 5688 5692 5695 5699 5703 5706 5709 5712 5715 5718 5721 5724 5727 5730 5732 5735 5738 5740 5741 5744 5748 5752 5755 5759 5762 5766 5769 5771 5774 5776 5778 5781 5783 5785 5787 5789 5791 5793 5795 5797 5799 5800 5802 5803 5804 5807 5810 5812 5813 5815 5816 5817 5818 5820 5822 5824 5825 5827 5828 5828 5829 5830 5830 5830 5831 5832 5833 5834 5836 5833 5830 5836 5841 5844 5846 5846 5845 5845 5845 5845 5845 5844 5843 5842 5843 5842 5841
5680 5684 5688 5691 5695 5699 5702 5705 5708 5711 5714 5717 5719 5722 5725 5727 5730 5732 5734 5735 5737 5742 5747 5751 5754 5757 5762 5765 5767 5770 5771 5773 5777 5778 5780 5783 5785 5787 5789 5791 5793 5794 5796 5798 5799 5801 5804 5807 5808 5810 5811 5813 5814 5815 5817 5818 5820 5821 5823 5824 5824 5825 5826 5826 5827 5828 5829 5829 5831 5833 5830 5824 5827 5836 5841 5843 5842 5842 5843 5842 5843 5842 5840 5839 5840 5840 5839 5838
5676 5680 5684 5687 5691 5694 5697 5701 5704 5707 5711 5712 5715 5718 5719 5723 5724 5726 5729 5728 5730 5738 5743 5746 5750 5754 5758 5761 5763 5765 5766 5770 5774 5774 5776 5779 5781 5783 5784 5786 5789 5790 5792 5794 5795 5798 5801 5803 5804 5806 5808 5809 5810 5812 5812 5813 5814 5815 5818 5820 5820 5820 5821 5822 5823 5824 5825 5826 5827 5829 5829 5822 5819 5827 5837 5840 5838 5838 5840 5841 5840 5839 5837 5836 5837 5837 5836 5835
5672 5676 5680 5683 5686 5689 5693 5696 5700 5704 5706 5708 5711 5713 5715 5718 5718 5722 5723 5719 5724 5735 5739 5742 5747 5750 5753 5755 5757 5759 5763 5768 5769 5769 5773 5774 5776 5778 5779 5782 5785 5785 5787 5789 5790 5794 5797 5798 5799 5801 5803 5804 5806 5807 5808 5808 5808 5811 5813 5815 5815 5816 5817 5818 5819 5820 5821 5822 5823 5824 5826 5822 5816 5819 5828 5833 5834 5835 5837 5839 5838 5836 5834 5834 5834 5833 5833 5831
5667 5671 5674 5677 5679 5683 5688 5692 5696 5699 5701 5705 5707 5708 5711 5712 5713 5717 5714 5712 5722 5732 5735 5739 5742 5745 5748 5750 5752 5755 5758 5762 5763 5765 5768 5768 5770 5773 5774 5777 5779 5780 5782 5784 5786 5789 5792 5793 5794 5796 5798 5800 5802 5803 5803 5803 5804 5807 5809 5810 5811 5812 5813 5814 5814 5816 5816 5817 5820 5821 5821 5820 5816 5817 5820 5823 5827 5830 5833 5835 5834 5833 5832 5831 5831 5830 5829 5827
5663 5666 5669 5671 5675 5679 5683 5686 5690 5693 5696 5699 5700 5703 5705 5705 5709 5708 5704 5710 5723 5727 5731 5735 5736 5740 5743 5744 5747 5750 5753 5756 5758 5760 5761 5763 5766 5768 5770 5772 5774 5775 5777 5779 5781 5784 5787 5789 5789 5791 5794 5796 5797 5798 5799 5799 5800 5803 5804 5805 5806 5807 5808 5808 5809 5811 5810 5812 5817 5816 5816 5817 5816 5816 5817 5816 5818 5823 5829 5831 5830 5829 5828 5828 5827 5826 5825 5823
5659 5662 5664 5667 5671 5674 5678 5681 5683 5687 5690 5693 5695 5697 5698 5700 5702 5698 5699 5715 5723 5721 5725 5729 5731 5735 5737 5740 5742 5745 5748 5750 5752 5754 5756 5759 5760 5762 5765 5767 5769 5771 5772 5775 5777 5780 5782 5783 5785 5788 5789 5791 5793 5794 5795 5795 5796 5798 5799 5799 5800 5800 5802 5803 5804 5807 5806 5808 5813 5811 5811 5814 5813 5815 5816 5812 5813 5816 5821 5825 5826 5825 5824 5824 5823 5822 5821 5819
5654 5657 5660 5663 5666 5670 5674 5676 5679 5681 5684 5687 5689 5690 5692 5693 5690 5691 5703 5717 5716 5712 5718 5724 5728 5732 5732 5734 5737 5739 5742 5744 5746 5749 5751 5754 5755 5758 5761 5763 5765 5767 5768 5771 5773 5774 5776 5778 5781 5783 5784 5786 5788 5788 5789 5790 5792 5793 5794 5795 5795 5795 5797 5798 5800 5801 5801 5803 5807 5806 5806 5806 5809 5814 5813 5808 5809 5811 5813 5816 5819 5820 5820 5819 5818 5818 5817 5815
5648 5652 5655 5658 5661 5665 5669 5672 5674 5676 5679 5681 5682 5683 5685 5682 5682 5693 5706 5710 5706 5706 5713 5719 5724 5726 5726 5728 5730 5734 5736 5738 5740 5743 5745 5748 5749 5753 5755 5757 5760 5762 5764 5767 5767 5768 5771 5772 5775 5777 5779 5782 5782 5783 5784 5786 5788 5789 5790 5791 5791 5791 5791 5792 5794 5794 5794 5798 5800 5801 5800 5800 5805 5809 5808 5807 5808 5809 5809 5809 5810 5813 5814 5812 5812 5813 5811 5809
5642 5646 5649 5653 5657 5660 5663 5667 5669 5673 5676 5675 5674 5676 5675 5673 5683 5696 5700 5699 5701 5704 5708 5714 5718 5719 5720 5722 5725 5729 5731 5732 5736 5737 5739 5742 5743 5747 5751 5753 5756 5758 5760 5760 5761 5764 5766 5767 5771 5773 5775 5777 5778 5779 5780 5781 5782 5783 5785 5785 5784 5787 5787 5786 5787 5787 5788 5791 5793 5795 5794 5796 5801 5803 5803 5805 5806 5806 5806 5806 5806 5808 5808 5806 5805 5805 5805 5804
5637 5640 5644 5647 5651 5654 5658 5662 5664 5668 5671 5670 5668 5665 5665 5673 5685 5691 5690 5692 5696 5700 5703 5706 5709 5712 5715 5717 5721 5724 5725 5728 5731 5732 5733 5736 5739 5743 5747 5749 5752 5754 5755 5755 5757 5760 5761 5763 5767 5768 5770 5772 5773 5773 5774 5775 5776 5777 5779 5778 5779 5784 5783 5780 5780 5782 5783 5782 5785 5788 5788 5791 5797 5798 5799 5800 5800 5801 5802 5804 5804 5804 5803 5801 5798 5798 5798 5797
5631 5634 5638 5642 5645 5649 5653 5655 5659 5663 5665 5665 5662 5657 5662 5675 5682 5682 5684 5687 5690 5695 5697 5696 5700 5705 5709 5713 5716 5718 5720 5723 5726 5727 5728 5732 5734 5738 5742 5745 5748 5749 5750 5752 5752 5754 5755 5756 5759 5762 5763 5765 5766 5766 5767 5768 5769 5771 5773 5772 5775 5779 5777 5774 5774 5777 5777 5773 5776 5782 5781 5787 5792 5792 5796 5796 5794 5796 5798 5799 5801 5799 5798 5796 5793 5793 5791 5791
5624 5628 5632 5636 5640 5643 5646 5649 5653 5656 5658 5658 5654 5654 5663 5671 5673 5675 5679 5682 5685 5689 5690 5689 5693 5698 5702 5706 5710 5712 5715 5718 5720 5721 5724 5727 5729 5734 5739 5741 5743 5745 5746 5747 5745 5746 5747 5747 5751 5755 5756 5758 5760 5759 5760 5762 5763 5765 5766 5767 5770 5770 5769 5769 5767 5768 5769 5765 5769 5776 5777 5781 5786 5786 5790 5792 5790 5792 5794 5794 5794 5793 5792 5791 5790 5789 5787 5786
5617 5621 5625 5630 5633 5636 5640 5643 5646 5649 5650 5649 5647 5650 5659 5665 5668 5671 5674 5677 5679 5681 5683 5685 5687 5691 5695 5699 5702 5706 5709 5710 5714 5717 5719 5721 5724 5730 5734 5735 5737 5740 5741 5740 5737 5738 5741 5740 5743 5747 5749 5751 5752 5752 5753 5756 5757 5757 5759 5762 5764 5762 5763 5764 5760 5760 5763 5760 5762 5769 5771 5774 5779 5781 5785 5786 5785 5788 5789 5788 5788 5786 5786 5786 5786 5785 5783 5782
5610 5614 5618 5623 5625 5628 5632 5635 5639 5640 5640 5639 5641 5647 5654 5660 5664 5666 5667 5671 5673 5673 5677 5680 5682 5685 5688 5691 5694 5698 5701 5703 5707 5710 5712 5715 5719 5724 5728 5728 5730 5733 5733 5732 5730 5732 5734 5734 5735 5739 5742 5743 5744 5745 5748 5750 5752 5751 5753 5756 5757 5757 5758 5757 5754 5755 5757 5755 5755 5760 5763 5766 5774 5779 5780 5780 5780 5781 5781 5781 5781 5781 5780 5781 5781 5780 5779 5778
5604 5607 5611 5616 5617 5620 5624 5626 5628 5629 5629 5633 5639 5644 5650 5655 5658 5659 5662 5665 5666 5667 5670 5674 5677 5678 5680 5685 5687 5690 5695 5696 5699 5702 5704 5708 5713 5718 5721 5722 5723 5725 5726 5725 5724 5726 5727 5727 5728 5731 5734 5735 5737 5741 5744 5746 5747 5747 5747 5750 5751 5752 5752 5750 5748 5750 5751 5750 5750 5751 5752 5760 5773 5776 5775 5774 5773 5774 5775 5774 5774 5774 5776 5776 5775 5773 5773 5772
5596 5600 5605 5609 5609 5611 5615 5615 5618 5622 5625 5630 5635 5639 5645 5649 5651 5654 5657 5659 5660 5662 5666 5668 5670 5672 5674 5679 5681 5684 5688 5689 5692 5695 5697 5701 5708 5712 5714 5716 5717 5719 5719 5718 5719 5721 5722 5723 5723 5724 5727 5730 5733 5738 5739 5739 5741 5741 5741 5743 5745 5746 5745 5742 5740 5743 5744 5743 5745 5745 5743 5755 5771 5772 5769 5769 5767 5768 5769 5768 5767 5768 5769 5770 5768 5767 5766 5765
5589 5594 5600 5601 5600 5604 5606 5607 5612 5617 5619 5624 5631 5636 5639 5642 5645 5647 5650 5653 5654 5657 5660 5662 5665 5667 5669 5673 5675 5677 5680 5683 5685 5688 5691 5697 5702 5704 5706 5708 5710 5712 5712 5711 5713 5716 5717 5716 5717 5718 5721 5725 5727 5730 5731 5731 5733 5733 5733 5737 5739 5737 5736 5735 5733 5735 5738 5737 5740 5741 5736 5749 5766 5766 5763 5764 5761 5762 5763 5762 5763 5762 5762 5762 5761 5761 5760 5758
5583 5588 5592 5591 5593 5596 5596 5598 5605 5608 5613 5622 5627 5628 5631 5636 5639 5640 5643 5646 5648 5651 5654 5657 5660 5662 5664 5668 5670 5671 5674 5676 5678 5682 5687 5692 5695 5697 5698 5700 5702 5704 5705 5705 5707 5709 5708 5708 5710 5712 5714 5717 5719 5722 5723 5723 5724 5725 5726 5730 5730 5729 5729 5730 5728 5731 5732 5731 5737 5736 5730 5743 5760 5759 5758 5758 5754 5754 5755 5756 5757 5756 5755 5755 5754 5754 5753 5750
5576 5579 5582 5583 5586 5586 5587 5593 5601 5604 5611 5617 5616 5618 5625 5630 5631 5634 5637 5640 5643 5646 5648 5651 5655 5657 5660 5663 5664 5665 5667 5669 5672 5677 5681 5685 5688 5690 5692 5694 5695 5696 5697 5699 5701 5701 5700 5701 5703 5705 5706 5708 5712 5714 5715 5716 5717 5718 5721 5724 5724 5725 5725 5724 5726 5726 5724 5727 5734 5729 5723 5738 5753 5752 5752 5752 5748 5748 5749 5749 5750 5748 5748 5748 5746 5746 5745 5744
5568 5571 5573 5576 5578 5578 5581 5590 5596 5599 5605 5606 5606 5613 5620 5622 5625 5630 5633 5635 5636 5639 5641 5645 5649 5652 5655 5657 5658 5660 5662 5663 5667 5671 5674 5677 5680 5683 5686 5687 5687 5689 5691 5692 5693 5693 5693 5694 5695 5696 5698 5701 5706 5708 5708 5711 5713 5713 5717 5719 5720 5721 5719 5718 5721 5718 5716 5724 5727 5719 5717 5733 5745 5745 5745 5744 5742 5743 5744 5742 5742 5741 5740 5740 5738 5738 5738 5737
5560 5563 5567 5569 5570 5572 5577 5584 5587 5591 5596 5597 5600 5608 5612 5613 5620 5625 5626 5627 5630 5632 5636 5640 5643 5645 5646 5649 5651 5654 5657 5660 5662 5664 5667 5670 5672 5675 5678 5680 5680 5682 5684 5684 5685 5685 5684 5685 5687 5690 5692 5696 5702 5702 5701 5705 5707 5707 5711 5713 5712 5713 5713 5711 5710 5708 5712 5718 5716 5712 5717 5725 5734 5739 5740 5739 5737 5736 5735 5735 5734 5734 5734 5733 5732 5731 5730 5729
5553 5557 5561 5563 5564 5565 5570 5577 5580 5585 5590 5591 5594 5601 5604 5607 5612 5615 5616 5619 5623 5627 5629 5632 5634 5635 5638 5643 5646 5649 5653 5655 5656 5658 5662 5665 5666 5668 5671 5673 5674 5675 5677 5677 5678 5678 5677 5679 5682 5685 5686 5691 5697 5696 5694 5697 5700 5701 5704 5705 5704 5705 5705 5702 5700 5704 5711 5707 5702 5711 5717 5715 5721 5733 5736 5734 5732 5730 5729 5729 5727 5725 5726 5727 5726 5724 5723 5721
5547 5552 5556 5556 5556 5558 5564 5572 5576 5580 5583 5583 5586 5593 5596 5598 5602 5605 5609 5613 5617 5619 5621 5622 5626 5629 5634 5638 5641 5642 5645 5647 5648 5653 5658 5660 5661 5663 5664 5666 5668 5669 5671 5671 5671 5672 5672 5673 5678 5679 5680 5684 5689 5690 5689 5689 5692 5694 5695 5696 5696 5697 5697 5695 5695 5702 5705 5697 5695 5708 5711 5705 5712 5725 5729 5727 5725 5725 5725 5723 5720 5718 5718 5720 5719 5716 5714 5714
5542 5546 5549 5550 5551 5554 5560 5566 5569 5571 5572 5573 5577 5583 5586 5590 5596 5600 5603 5606 5608 5610 5612 5614 5621 5627 5630 5632 5633 5634 5637 5639 5641 5648 5654 5656 5656 5658 5659 5660 5662 5663 5665 5665 5666 5666 5665 5668 5674 5674 5672 5676 5680 5683 5685 5684 5683 5685 5686 5686 5688 5688 5690 5691 5692 5697 5697 5690 5691 5700 5700 5699 5706 5715 5720 5720 5718 5718 5719 5716 5713 5713 5712 5710 5709 5708 5709 5708
5536 5540 5543 5544 5545 5550 5554 5557 5559 5561 5563 5564 5568 5574 5579 5583 5590 5594 5595 5596 5598 5603 5605 5609 5617 5622 5622 5623 5623 5624 5629 5633 5636 5642 5648 5649 5649 5651 5652 5654 5656 5657 5658 5659 5660 5659 5659 5663 5669 5667 5663 5667 5674 5679 5680 5678 5676 5675 5676 5678 5680 5682 5685 5687 5687 5689 5688 5685 5688 5692 5689 5692 5702 5708 5708 5711 5712 5711 5709 5707 5707 5708 5706 5703 5702 5704 5705 5703
5531 5533 5535 5536 5538 5543 5547 5549 5551 5553 5554 5556 5562 5570 5574 5577 5583 5586 5586 5587 5590 5594 5597 5603 5610 5612 5612 5612 5613 5615 5622 5626 5627 5632 5637 5638 5640 5643 5644 5646 5649 5649 5649 5652 5651 5651 5652 5654 5659 5659 5654 5658 5670 5674 5672 5672 5668 5663 5665 5672 5677 5680 5680 5679 5679 5681 5682 5682 5683 5682 5679 5684 5698 5702 5697 5700 5704 5703 5701 5703 5703 5700 5698 5696 5696 5699 5699 5698
5523 5525 5527 5528 5531 5536 5539 5541 5543 5543 5545 5551 5560 5566 5568 5571 5576 5577 5576 5579 5583 5587 5590 5596 5600 5601 5601 5603 5605 5609 5614 5615 5617 5622 5625 5626 5631 5634 5634 5637 5640 5640 5641 5643 5643 5643 5645 5646 5650 5651 5645 5649 5661 5664 5662 5661 5653 5648 5659 5672 5676 5675 5672 5669 5670 5675 5679 5677 5674 5671 5673 5680 5689 5692 5688 5691 5696 5695 5694 5697 5695 5689 5688 5689 5689 5690 5691 5692